Simultaneous Nadir Overpasses (SNOs) Predictions

Prediction of SNOs between LANDSAT-8 and NOAA-19 Satellite Orbit:

Table of predicted SNOs for the next 14.0 days since TLE Epoch: 10/22/2022
Index Date (LANDSAT-8) Time (LANDSAT-8) Lat,Lon (LANDSAT-8) SZA (LANDSAT-8 ) Date (NOAA-19) Time (NOAA-19) Lat,Lon (NOAA-19) SZA (NOAA-19 ) Distance(km) Time Diff (sec)
1 10/23/2022 21:20:20 -80.88, 76.57 85.39 10/23/2022 21:19:35 -80.88, 76.42 85.43 2.71 45
2 10/23/2022 22:09:47 80.86,-116.07 94.59 10/23/2022 22:10:39 80.87,-115.89 94.63 3.39 52
3 10/26/2022 03:43:32 -80.87, -19.35 84.62 10/26/2022 03:43:23 -80.87, -19.20 84.61 2.60 9
4 10/28/2022 09:17:16 80.89, 77.37 96.16 10/28/2022 09:16:18 80.88, 77.33 96.13 1.15 58
5 10/28/2022 10:06:44 -80.86,-115.33 83.88 10/28/2022 10:07:12 -80.88,-115.23 83.85 2.66 28
6 10/30/2022 15:40:27 80.89, -18.35 96.92 10/30/2022 15:40:06 80.88, -18.40 96.90 1.92 21
7 10/30/2022 16:29:55 -80.87, 148.96 83.12 10/30/2022 16:31:00 -80.87, 149.09 83.08 2.44 65
8 11/01/2022 22:03:38 80.89,-114.14 97.65 11/01/2022 22:03:54 80.88,-114.19 97.64 2.04 16
9 11/04/2022 03:37:23 -80.89, -17.64 81.67 11/04/2022 03:36:38 -80.88, -17.52 81.68 2.35 45



Historial Predications of SNOs between LANDSAT-8 and NOAA-19
